Sabine Lake Weather Center

Moon Phase Calendar



Sabine Lake Water Level
Online Cameras

 


      

Current Conditions in Lakeview
7/16/2024 11:29:54 AM

90°F
Feels Like 101
Clouds
Humidity
62%
Pressure
30"
Wind
4.6 mph (SW)
Dew Point
75°F
UV Index
7/10 (High)
Visibility
6 mi

Hourly Forecast

Date & Time Tue, Jul 16
11:00 AM
Tue, Jul 16
12:00 PM
Tue, Jul 16
1:00 PM
Tue, Jul 16
2:00 PM
Tue, Jul 16
3:00 PM
Tue, Jul 16
4:00 PM
Tue, Jul 16
5:00 PM
Tue, Jul 16
6:00 PM
Tue, Jul 16
7:00 PM
Tue, Jul 16
8:00 PM
Tue, Jul 16
9:00 PM
Tue, Jul 16
10:00 PM
Tue, Jul 16
11:00 PM
Wed, Jul 17
12:00 AM
Wed, Jul 17
1:00 AM
Wed, Jul 17
2:00 AM
Wed, Jul 17
3:00 AM
Wed, Jul 17
4:00 AM
Wed, Jul 17
5:00 AM
Wed, Jul 17
6:00 AM
Wed, Jul 17
7:00 AM
Wed, Jul 17
8:00 AM
Wed, Jul 17
9:00 AM
Wed, Jul 17
10:00 AM
Wed, Jul 17
11:00 AM
Wed, Jul 17
12:00 PM
Wed, Jul 17
1:00 PM
Wed, Jul 17
2:00 PM
Wed, Jul 17
3:00 PM
Wed, Jul 17
4:00 PM
Wed, Jul 17
5:00 PM
Wed, Jul 17
6:00 PM
Wed, Jul 17
7:00 PM
Wed, Jul 17
8:00 PM
Wed, Jul 17
9:00 PM
Wed, Jul 17
10:00 PM
Wed, Jul 17
11:00 PM
Thu, Jul 18
12:00 AM
Thu, Jul 18
1:00 AM
Thu, Jul 18
2:00 AM
Thu, Jul 18
3:00 AM
Thu, Jul 18
4:00 AM
Thu, Jul 18
5:00 AM
Thu, Jul 18
6:00 AM
Thu, Jul 18
7:00 AM
Thu, Jul 18
8:00 AM
Thu, Jul 18
9:00 AM
Thu, Jul 18
10:00 AM
Condition
Clouds

Clouds

Clouds

Clouds

Clear

Clear

Clear

Clear

Clear

Clear

Clear

Clear

Clear

Clear

Clear

Clear

Clear

Clear

Clear

Clouds

Clouds

Clouds

Rain

Rain

Clouds

Clouds

Clouds

Rain

Rain

Rain

Rain

Clouds

Clouds

Clear

Clear

Clouds

Clouds

Clouds

Clouds

Clear

Clear

Clear

Clear

Rain

Rain

Clouds

Clouds

Rain
Temperature 90°F90°F91°F91°F91°F90°F89°F88°F86°F83°F82°F81°F82°F82°F82°F81°F81°F81°F81°F82°F82°F84°F86°F87°F90°F91°F92°F89°F89°F89°F88°F87°F86°F83°F83°F83°F82°F82°F81°F81°F80°F80°F80°F79°F79°F81°F84°F85°F
Feels Like 101°F100°F100°F100°F99°F98°F97°F97°F95°F90°F87°F87°F87°F88°F88°F87°F86°F86°F87°F88°F89°F92°F95°F96°F99°F101°F102°F99°F100°F99°F98°F97°F95°F92°F90°F90°F89°F89°F87°F87°F86°F85°F80°F79°F80°F88°F93°F95°F
Cloudiness 40%33%25%16%8%0%0%0%0%0%0%0%0%0%0%0%0%0%1%17%30%83%68%71%79%83%84%87%82%90%91%89%87%1%4%18%40%39%37%6%0%6%4%4%2%25%30%39%
Visibility 6 mi6 mi6 mi6 mi6 mi6 mi6 mi6 mi6 mi6 mi6 mi6 mi6 mi6 mi6 mi6 mi6 mi6 mi6 mi6 mi6 mi6 mi6 mi6 mi6 mi6 mi6 mi6 mi6 mi6 mi6 mi6 mi6 mi6 mi6 mi6 mi6 mi6 mi6 mi6 mi6 mi6 mi6 mi6 mi6 mi6 mi6 mi6 mi
Precipitation 0%0%0%0%0%0%0%0%0%0%0%0%0%0%0%0%0%0%0%0%0%0%47%49%36%38%38%100%100%100%100%80%80%0%0%0%0%0%0%0%0%4%2%20%61%0%0%74%
Humidity 62%60%58%56%55%56%59%63%69%74%76%77%78%79%79%79%80%81%79%77%76%74%71%66%60%58%57%64%65%65%66%69%73%78%79%77%78%80%81%82%84%86%86%87%90%85%77%74%
Dew Point 75°F74°F74°F73°F73°F73°F73°F74°F75°F74°F73°F74°F74°F75°F75°F74°F74°F74°F74°F74°F74°F75°F75°F75°F74°F74°F74°F76°F76°F75°F75°F76°F76°F76°F75°F75°F75°F75°F75°F75°F75°F75°F75°F75°F76°F76°F76°F76°F
Pressure 30"30"30"29.97"29.97"29.97"29.94"29.94"29.94"29.94"29.97"29.97"29.94"29.94"29.94"29.94"29.94"29.94"29.94"29.97"29.97"30"30"30"30"30"29.97"29.97"29.97"29.97"29.97"29.94"29.94"29.94"29.94"29.97"29.97"30"30"29.97"29.97"29.97"29.97"29.97"30"30"30.03"30.03"
Wind Speed 6.1 mph6.6 mph7.9 mph9.6 mph11.1 mph11.5 mph10.7 mph10.5 mph9.9 mph9.5 mph8.8 mph8.8 mph8.2 mph8.5 mph8.2 mph7.3 mph7.3 mph7.7 mph8 mph7.3 mph6.4 mph5.7 mph5.5 mph5.3 mph5.3 mph7.1 mph9.8 mph11 mph9.4 mph9.1 mph9 mph9.5 mph11 mph11.4 mph11.4 mph9.6 mph8.4 mph6.6 mph6.2 mph5.4 mph6.4 mph5.9 mph5 mph5.6 mph6.3 mph5.2 mph5.6 mph6.6 mph
Wind
Direction
201°
SSW
193°
SSW
184°
S
175°
S
174°
S
175°
S
174°
S
175°
S
177°
S
179°
S
184°
S
184°
S
179°
S
181°
S
189°
S
186°
S
193°
SSW
191°
S
202°
SSW
209°
SSW
213°
SSW
233°
SW
231°
SW
212°
SSW
202°
SSW
178°
S
173°
S
175°
S
183°
S
186°
S
180°
S
177°
S
178°
S
183°
S
185°
S
195°
SSW
200°
SSW
212°
SSW
206°
SSW
220°
SW
239°
WSW
250°
WSW
252°
WSW
261°
W
289°
WNW
277°
W
270°
W
283°
WNW

Daily Forecast

Date High Low Precip. Humidity
Today
Jul 16

Clouds
91 °F
80 °F
0%
58%
Wednesday
Jul 17

Rain
92 °F
81 °F
100%
57%
Thursday
Jul 18

Rain
92 °F
79 °F
100%
55%
Friday
Jul 19

Rain
91 °F
74 °F
100%
57%
Saturday
Jul 20

Rain
89 °F
75 °F
100%
55%
Sunday
Jul 21

Rain
90 °F
78 °F
100%
57%
Monday
Jul 22

Rain
85 °F
78 °F
100%
73%
Tuesday
Jul 23

Rain
89 °F
78 °F
100%
71%
Wednesday
Jul 24

Rain
90 °F
79 °F
100%
67%
Thursday
Jul 25

Rain
81 °F
76 °F
100%
96%
Friday
Jul 26

Rain
91 °F
77 °F
94%
58%
Saturday
Jul 27

Clouds
91 °F
80 °F
0%
58%
Sunday
Jul 28

Rain
90 °F
81 °F
96%
61%
Monday
Jul 29

Clouds
91 °F
81 °F
0%
56%
Tuesday
Jul 30

Clouds
93 °F
81 °F
0%
52%
Wednesday
Jul 31

Rain
95 °F
79 °F
100%
53%

Temperature 8-14 Day Outlook



Precipitation 8-14 Day Outlook






About Us
Contact Us
Site Map
Search Site
Advertise With Us
   
Sabine.USLakes.info
THE SABINE LAKE WEBSITE

Copyright 2024, Lakes Online
Privacy    |    Legal